sat.trackr.live / text

‹ back to catalog

KHAYYAM

NORAD 53370 · 2022-096A

PAYLOAD ACTIVE UNKNOWN

§ Identity

Operator
Country
IRAN
Launch date
2022-08-09
Launch site
TYMSC
Launch vehicle
Mass (kg)
RCS (m²)

External: N2YO · Heavens-Above · Gunter

§ Orbital elements

Epoch: 2026-09-20T22:26:46.757760Z

Period
94.45 min
Inclination
97.3327°
Eccentricity
0.0002611
Mean motion
15.24658029 rev/d
Perigee alt
490.0 km
Apogee alt
493.6 km
Semi-major
6,869.9 km
B*
1.1210e-4
RAAN
166.3336°
Arg perigee
78.9596°
Mean anomaly
281.1935°
Rev number
22,918

§ Raw data

KHAYYAM1 53370U 22096A   26263.93526340  .00002698  00000+0  11210-3 0  99902 53370  97.3327 166.3336 0002611  78.9596 281.1935 15.24658029229186

JSON: /api/v1/satellites/53370 · /tle

For live sub-satellite position, see the globe view (requires WebGL).

§ Visibility from observer

Set your observer location to see the next 7 days of passes ≥ 10°. The values pass through the URL so the page stays shareable.

No JS? Fill the form by hand. The geolocation button needs JavaScript.